Flight Track Log - Related Links

Times and Time Zones

All times are in EDT time to prevent confusion due to time zone crossing. See the SKW5657 flight status page for this flight to view local times or setup timezone preferences in your user account.

Time Position Orientation Groundspeed Altitude Reporting Facility
EDT Latitude Longitude Course Direction KTS MPH feet Rate Location/Type
Sun 10:16:46 AM 39.8500 -104.7667 270° West 179 206 7,000  Level Denver TRACON
Sun 10:17:15 AM 39.8564 -104.7908 289° West 202 232 8,200 2,667 Climbing Denver Center
Sun 10:18:16 AM 39.8683 -104.8886 279° West 265 305 11,000 2,489 Climbing Denver Center
Sun 10:19:00 AM 39.8500 -105.2607 270° West  Level FlightAware Approximate
Sun 10:19:30 AM 39.8667 -104.9961 269° West 300 345 13,800  Level Denver Center
Sun 10:20:00 AM 39.8500 -105.4092 270° West  Level FlightAware Approximate
Sun 10:20:32 AM 39.8650 -105.1342 269° West 314 361 17,100  Level Denver Center
Sun 10:21:00 AM 39.8501 -105.5577 270° West  Level FlightAware Approximate
Sun 10:21:33 AM 39.8644 -105.2517 270° West 324 373 19,500  Level Denver Center
Sun 10:22:00 AM 39.8500 -105.7062 270° West  Level FlightAware Approximate
Sun 10:22:35 AM 39.8622 -105.3789 269° West 326 375 21,800  Level Denver Center
Sun 10:23:36 AM 39.8622 -105.5019 270° West 338 389 23,600 1,659 Climbing Denver Center
Sun 10:24:38 AM 39.8600 -105.6372 269° West 348 400 25,200 1,161 Climbing Denver Center
Sun 10:25:40 AM 39.8561 -105.7683 268° West 364 419 26,000 390 Climbing Denver Center
Sun 10:26:41 AM 39.8433 -105.9036 263° West 369 425 26,000  Level Denver Center
Sun 10:27:43 AM 39.8308 -106.0411 263° West 378 435 26,000  Level Denver Center
Sun 10:28:45 AM 39.8189 -106.1822 264° West 389 448 26,000  Level Denver Center
Sun 10:29:46 AM 39.8058 -106.3253 263° West 395 455 26,000  Level Denver Center
Sun 10:30:48 AM 39.7925 -106.4689 263° West 396 456 26,000  Level Denver Center
Sun 10:31:50 AM 39.7692 -106.5958 257° West 392 451 26,000  Level Denver Center
Sun 10:32:52 AM 39.7197 -106.7539 248° West 394 453 26,000  Level Denver Center
Sun 10:33:53 AM 39.6772 -106.8881 248° West 395 455 26,000  Level Denver Center
Sun 10:34:55 AM 39.6364 -107.0139 247° West 395 455 26,000  Level Denver Center
Sun 10:35:57 AM 39.5914 -107.1606 248° West 393 452 26,000  Level Denver Center
Sun 10:36:59 AM 39.5514 -107.2856 247° West 392 451 26,000  Level Denver Center
Sun 10:38:01 AM 39.5042 -107.4325 247° West 394 453 26,000 -823 Level Denver Center
Sun 10:39:03 AM 39.4644 -107.5556 247° West 390 449 24,300 -2,226 Descending Denver Center
Sun 10:40:05 AM 39.4281 -107.6725 248° West 373 429 21,400 -2,927 Descending Denver Center
Sun 10:41:06 AM 39.3853 -107.8069 248° West 364 419 18,300 -2,732 Descending Denver Center
Sun 10:42:08 AM 39.3464 -107.9286 248° West 355 409 15,800 -1,597 Descending Denver Center
Sun 10:43:10 AM 39.3164 -108.0189 247° West 328 377 15,000 -823 Descending Denver Center
Sun 10:44:12 AM 39.2761 -108.1464 248° West 315 362 14,100 -1,161 Descending Denver Center
Sun 10:45:14 AM 39.2536 -108.2406 253° West 281 323 12,600 -1,597 Descending Denver Center
Sun 10:46:16 AM 39.2592 -108.3428 274° West 281 323 10,800 -1,403 Descending Denver Center
Sun 10:47:18 AM 39.2692 -108.4303 278° West 233 268 9,700 -871 Descending Denver Center
Sun 10:48:20 AM 39.2783 -108.5183 278° West 229 264 9,000 -484 Descending Denver Center
Sun 10:49:22 AM 39.2706 -108.5956 263° West 234 269 8,700 -968 Descending Denver Center
Sun 10:50:24 AM 39.2225 -108.6356 213° Southwest 194 223 7,000 -1,210 Descending Denver Center
Sun 10:51:26 AM 39.1797 -108.6181 162° South 163 188 6,200 -677 Descending Denver Center
Sun 10:52:28 AM 39.1544 -108.5817 132° Southeast 131 151 5,600 -581 Descending Denver Center

Login

Don't have an account? Register now (free) for customized features, flight alerts, and more!